"Time","Value","Approval","myLocation"
"2023-05-06 00:00",16.2851055634807,"Approved","OW479"
"2023-05-06 01:00",16.284108892059,"Approved","OW479"
"2023-05-06 02:00",16.2821122206372,"Approved","OW479"
"2023-05-06 03:00",16.2821155492154,"Approved","OW479"
"2023-05-06 04:00",16.2811188777936,"Approved","OW479"
"2023-05-06 05:00",16.2811222063718,"Approved","OW479"
"2023-05-06 06:00",16.2821255349501,"Approved","OW479"
"2023-05-06 07:00",16.2841288635283,"Approved","OW479"
"2023-05-06 08:00",16.2851321921065,"Approved","OW479"
"2023-05-06 09:00",16.2861355206847,"Approved","OW479"
"2023-05-06 10:00",16.286138849263,"Approved","OW479"
"2023-05-06 11:00",16.2861421778412,"Approved","OW479"
"2023-05-06 12:00",16.2841455064194,"Approved","OW479"
"2023-05-06 13:00",16.2831488349976,"Approved","OW479"
"2023-05-06 14:00",16.2821521635758,"Approved","OW479"
"2023-05-06 15:00",16.2841554921541,"Approved","OW479"
"2023-05-06 16:00",16.2851588207323,"Approved","OW479"
"2023-05-06 17:00",16.2861621493105,"Approved","OW479"
"2023-05-06 18:00",16.2901654778887,"Approved","OW479"
"2023-05-06 19:00",16.295168806467,"Approved","OW479"
"2023-05-06 20:00",16.2971721350452,"Approved","OW479"
"2023-05-06 21:00",16.2981754636234,"Approved","OW479"
"2023-05-06 22:00",16.2981787922016,"Approved","OW479"
"2023-05-06 23:00",16.2981821207798,"Approved","OW479"
"2023-05-07 00:00",16.2961854493581,"Approved","OW479"
"2023-05-07 01:00",16.2941887779363,"Approved","OW479"
"2023-05-07 02:00",16.2921921065145,"Approved","OW479"
"2023-05-07 03:00",16.2901954350927,"Approved","OW479"
"2023-05-07 04:00",16.2871987636709,"Approved","OW479"
"2023-05-07 05:00",16.2872020922492,"Approved","OW479"
"2023-05-07 06:00",16.2872054208274,"Approved","OW479"
"2023-05-07 07:00",16.2872087494056,"Approved","OW479"
"2023-05-07 08:00",16.2892120779838,"Approved","OW479"
"2023-05-07 09:00",16.2902154065621,"Approved","OW479"
"2023-05-07 10:00",16.2912187351403,"Approved","OW479"
"2023-05-07 11:00",16.2912220637185,"Approved","OW479"
"2023-05-07 12:00",16.2912253922967,"Approved","OW479"
"2023-05-07 13:00",16.2912287208749,"Approved","OW479"
"2023-05-07 14:00",16.2922320494532,"Approved","OW479"
"2023-05-07 15:00",16.2932353780314,"Approved","OW479"
"2023-05-07 16:00",16.2952387066096,"Approved","OW479"
"2023-05-07 17:00",16.2982420351878,"Approved","OW479"
"2023-05-07 18:00",16.301245363766,"Approved","OW479"
"2023-05-07 19:00",16.3042486923443,"Approved","OW479"
"2023-05-07 20:00",16.3072520209225,"Approved","OW479"
"2023-05-07 21:00",16.3102553495007,"Approved","OW479"
"2023-05-07 22:00",16.3112586780789,"Approved","OW479"
"2023-05-07 23:00",16.3122620066572,"Approved","OW479"
"2023-05-08 00:00",16.3102653352354,"Approved","OW479"
"2023-05-08 01:00",16.3092686638136,"Approved","OW479"
"2023-05-08 02:00",16.3062719923918,"Approved","OW479"
"2023-05-08 03:00",16.30327532097,"Approved","OW479"
"2023-05-08 04:00",16.3022786495483,"Approved","OW479"
"2023-05-08 05:00",16.3012819781265,"Approved","OW479"
"2023-05-08 06:00",16.3012853067047,"Approved","OW479"
"2023-05-08 07:00",16.3012886352829,"Approved","OW479"
"2023-05-08 08:00",16.3012919638611,"Approved","OW479"
"2023-05-08 09:00",16.3012952924394,"Approved","OW479"
"2023-05-08 10:00",16.3022986210176,"Approved","OW479"
"2023-05-08 11:00",16.3013019495958,"Approved","OW479"
"2023-05-08 12:00",16.300305278174,"Approved","OW479"
"2023-05-08 13:00",16.3003086067523,"Approved","OW479"
"2023-05-08 14:00",16.3003119353305,"Approved","OW479"
"2023-05-08 15:00",16.3013152639087,"Approved","OW479"
"2023-05-08 16:00",16.3013185924869,"Approved","OW479"
"2023-05-08 17:00",16.3033219210651,"Approved","OW479"
"2023-05-08 18:00",16.3053252496434,"Approved","OW479"
"2023-05-08 19:00",16.3083285782216,"Approved","OW479"
"2023-05-08 20:00",16.3113319067998,"Approved","OW479"
"2023-05-08 21:00",16.314335235378,"Approved","OW479"
"2023-05-08 22:00",16.3163385639563,"Approved","OW479"
"2023-05-08 23:00",16.3183418925345,"Approved","OW479"
"2023-05-09 00:00",16.3183452211127,"Approved","OW479"
"2023-05-09 01:00",16.3183485496909,"Approved","OW479"
"2023-05-09 02:00",16.3173518782691,"Approved","OW479"
"2023-05-09 03:00",16.3163552068474,"Approved","OW479"
"2023-05-09 04:00",16.3163585354256,"Approved","OW479"
"2023-05-09 05:00",16.3163618640038,"Approved","OW479"
"2023-05-09 06:00",16.316365192582,"Approved","OW479"
"2023-05-09 07:00",16.3163685211602,"Approved","OW479"
"2023-05-09 08:00",16.3163718497385,"Approved","OW479"
"2023-05-09 09:00",16.3183751783167,"Approved","OW479"
"2023-05-09 10:00",16.3193785068949,"Approved","OW479"
"2023-05-09 11:00",16.3213818354731,"Approved","OW479"
"2023-05-09 12:00",16.3233851640514,"Approved","OW479"
"2023-05-09 13:00",16.3243884926296,"Approved","OW479"
"2023-05-09 14:00",16.3253918212078,"Approved","OW479"
"2023-05-09 15:00",16.327395149786,"Approved","OW479"
"2023-05-09 16:00",16.3283984783642,"Approved","OW479"
"2023-05-09 17:00",16.3304018069425,"Approved","OW479"
"2023-05-09 18:00",16.3314051355207,"Approved","OW479"
"2023-05-09 19:00",16.3344084640989,"Approved","OW479"
"2023-05-09 20:00",16.3364117926771,"Approved","OW479"
"2023-05-09 21:00",16.3384151212554,"Approved","OW479"
"2023-05-09 22:00",16.3404184498336,"Approved","OW479"
"2023-05-09 23:00",16.3414217784118,"Approved","OW479"
"2023-05-10 00:00",16.34142510699,"Approved","OW479"
"2023-05-10 01:00",16.3404284355682,"Approved","OW479"
"2023-05-10 02:00",16.3404317641465,"Approved","OW479"
"2023-05-10 03:00",16.3384350927247,"Approved","OW479"
"2023-05-10 04:00",16.3374384213029,"Approved","OW479"
"2023-05-10 05:00",16.3364417498811,"Approved","OW479"
"2023-05-10 06:00",16.3344450784593,"Approved","OW479"
"2023-05-10 07:00",16.3324484070376,"Approved","OW479"
"2023-05-10 08:00",16.3314517356158,"Approved","OW479"
"2023-05-10 09:00",16.329455064194,"Approved","OW479"
"2023-05-10 10:00",16.3294583927722,"Approved","OW479"
"2023-05-10 11:00",16.3304617213504,"Approved","OW479"
"2023-05-10 12:00",16.3304650499287,"Approved","OW479"
"2023-05-10 13:00",16.3304683785069,"Approved","OW479"
"2023-05-10 14:00",16.3294717070851,"Approved","OW479"
"2023-05-10 15:00",16.3304750356633,"Approved","OW479"
"2023-05-10 16:00",16.3304783642416,"Approved","OW479"
"2023-05-10 17:00",16.3304816928198,"Approved","OW479"
"2023-05-10 18:00",16.331485021398,"Approved","OW479"
"2023-05-10 19:00",16.3314883499762,"Approved","OW479"
"2023-05-10 20:00",16.3324916785544,"Approved","OW479"
"2023-05-10 21:00",16.3334950071327,"Approved","OW479"
"2023-05-10 22:00",16.3354983357109,"Approved","OW479"
"2023-05-10 23:00",16.3355016642891,"Approved","OW479"
"2023-05-11 00:00",16.3365049928673,"Approved","OW479"
"2023-05-11 01:00",16.3365083214456,"Approved","OW479"
"2023-05-11 02:00",16.3365116500238,"Approved","OW479"
"2023-05-11 03:00",16.336514978602,"Approved","OW479"
"2023-05-11 04:00",16.3365183071802,"Approved","OW479"
"2023-05-11 05:00",16.3365216357584,"Approved","OW479"
"2023-05-11 06:00",16.3355249643367,"Approved","OW479"
"2023-05-11 07:00",16.3345282929149,"Approved","OW479"
"2023-05-11 08:00",16.3345316214931,"Approved","OW479"
"2023-05-11 09:00",16.3335349500713,"Approved","OW479"
"2023-05-11 10:00",16.3335382786495,"Approved","OW479"
"2023-05-11 11:00",16.3345416072278,"Approved","OW479"
"2023-05-11 12:00",16.335544935806,"Approved","OW479"
"2023-05-11 13:00",16.3365482643842,"Approved","OW479"
"2023-05-11 14:00",16.3375515929624,"Approved","OW479"
"2023-05-11 15:00",16.3395549215407,"Approved","OW479"
"2023-05-11 16:00",16.3395582501189,"Approved","OW479"
"2023-05-11 17:00",16.3415615786971,"Approved","OW479"
"2023-05-11 18:00",16.3425649072753,"Approved","OW479"
"2023-05-11 19:00",16.3435682358535,"Approved","OW479"
"2023-05-11 20:00",16.3435715644318,"Approved","OW479"
"2023-05-11 21:00",16.34457489301,"Approved","OW479"
"2023-05-11 22:00",16.3455782215882,"Approved","OW479"
"2023-05-11 23:00",16.3465815501664,"Approved","OW479"
"2023-05-12 00:00",16.3475848787446,"Approved","OW479"
"2023-05-12 01:00",16.3485882073229,"Approved","OW479"
"2023-05-12 02:00",16.3485915359011,"Approved","OW479"
"2023-05-12 03:00",16.3495948644793,"Approved","OW479"
"2023-05-12 04:00",16.3495981930575,"Approved","OW479"
"2023-05-12 05:00",16.3496015216358,"Approved","OW479"
"2023-05-12 06:00",16.348604850214,"Approved","OW479"
"2023-05-12 07:00",16.3476081787922,"Approved","OW479"
"2023-05-12 08:00",16.3476115073704,"Approved","OW479"
"2023-05-12 09:00",16.3476148359486,"Approved","OW479"
"2023-05-12 10:00",16.3456181645269,"Approved","OW479"
"2023-05-12 11:00",16.3456214931051,"Approved","OW479"
"2023-05-12 12:00",16.3456248216833,"Approved","OW479"
"2023-05-12 13:00",16.3456281502615,"Approved","OW479"
"2023-05-12 14:00",16.3466314788398,"Approved","OW479"
"2023-05-12 15:00",16.347634807418,"Approved","OW479"
"2023-05-12 16:00",16.3486381359962,"Approved","OW479"
"2023-05-12 17:00",16.3486414645744,"Approved","OW479"
"2023-05-12 18:00",16.3486447931526,"Approved","OW479"
"2023-05-12 19:00",16.3486481217309,"Approved","OW479"
"2023-05-12 20:00",16.3476514503091,"Approved","OW479"
"2023-05-12 21:00",16.3486547788873,"Approved","OW479"
"2023-05-12 22:00",16.3496581074655,"Approved","OW479"
"2023-05-12 23:00",16.3496614360437,"Approved","OW479"
"2023-05-13 00:00",16.350664764622,"Approved","OW479"
"2023-05-13 01:00",16.3516680932002,"Approved","OW479"
"2023-05-13 02:00",16.3536714217784,"Approved","OW479"
"2023-05-13 03:00",16.3556747503566,"Approved","OW479"
"2023-05-13 04:00",16.3556780789349,"Approved","OW479"
"2023-05-13 05:00",16.3566814075131,"Approved","OW479"
"2023-05-13 06:00",16.3576847360913,"Approved","OW479"
"2023-05-13 07:00",16.3566880646695,"Approved","OW479"
"2023-05-13 08:00",16.3556913932477,"Approved","OW479"
"2023-05-13 09:00",16.355694721826,"Approved","OW479"
"2023-05-13 10:00",16.3546980504042,"Approved","OW479"
"2023-05-13 11:00",16.3537013789824,"Approved","OW479"
"2023-05-13 12:00",16.3547047075606,"Approved","OW479"
"2023-05-13 13:00",16.3547080361388,"Approved","OW479"
"2023-05-13 14:00",16.3567113647171,"Approved","OW479"
"2023-05-13 15:00",16.3577146932953,"Approved","OW479"
"2023-05-13 16:00",16.3597180218735,"Approved","OW479"
"2023-05-13 17:00",16.3607213504517,"Approved","OW479"
"2023-05-13 18:00",16.36072467903,"Approved","OW479"
"2023-05-13 19:00",16.3607280076082,"Approved","OW479"
"2023-05-13 20:00",16.3607313361864,"Approved","OW479"
"2023-05-13 21:00",16.3597346647646,"Approved","OW479"
"2023-05-13 22:00",16.3587379933428,"Approved","OW479"
"2023-05-13 23:00",16.3567413219211,"Approved","OW479"
"2023-05-14 00:00",16.3557446504993,"Approved","OW479"
"2023-05-14 01:00",16.3557479790775,"Approved","OW479"
"2023-05-14 02:00",16.3567513076557,"Approved","OW479"
"2023-05-14 03:00",16.357754636234,"Approved","OW479"
"2023-05-14 04:00",16.3597579648122,"Approved","OW479"
"2023-05-14 05:00",16.3607612933904,"Approved","OW479"
"2023-05-14 06:00",16.3617646219686,"Approved","OW479"
"2023-05-14 07:00",16.3607679505468,"Approved","OW479"
"2023-05-14 08:00",16.3587712791251,"Approved","OW479"
"2023-05-14 09:00",16.3567746077033,"Approved","OW479"
"2023-05-14 10:00",16.3547779362815,"Approved","OW479"
"2023-05-14 11:00",16.3527812648597,"Approved","OW479"
"2023-05-14 12:00",16.3517845934379,"Approved","OW479"
"2023-05-14 13:00",16.3507879220162,"Approved","OW479"
"2023-05-14 14:00",16.3507912505944,"Approved","OW479"
"2023-05-14 15:00",16.3517945791726,"Approved","OW479"
"2023-05-14 16:00",16.3527979077508,"Approved","OW479"
"2023-05-14 17:00",16.3528012363291,"Approved","OW479"
"2023-05-14 18:00",16.3518045649073,"Approved","OW479"
"2023-05-14 19:00",16.3498078934855,"Approved","OW479"
"2023-05-14 20:00",16.3478112220637,"Approved","OW479"
"2023-05-14 21:00",16.3458145506419,"Approved","OW479"
"2023-05-14 22:00",16.3428178792202,"Approved","OW479"
"2023-05-14 23:00",16.3398212077984,"Approved","OW479"
"2023-05-15 00:00",16.3378245363766,"Approved","OW479"
"2023-05-15 01:00",16.3368278649548,"Approved","OW479"
"2023-05-15 02:00",16.337831193533,"Approved","OW479"
"2023-05-15 03:00",16.3388345221113,"Approved","OW479"
"2023-05-15 04:00",16.3408378506895,"Approved","OW479"
"2023-05-15 05:00",16.3418411792677,"Approved","OW479"
"2023-05-15 06:00",16.3428445078459,"Approved","OW479"
"2023-05-15 07:00",16.3418478364242,"Approved","OW479"
"2023-05-15 08:00",16.3398511650024,"Approved","OW479"
"2023-05-15 09:00",16.3378544935806,"Approved","OW479"
"2023-05-15 10:00",16.3348578221588,"Approved","OW479"
"2023-05-15 11:00",16.332861150737,"Approved","OW479"
"2023-05-15 12:00",16.3298644793153,"Approved","OW479"
"2023-05-15 13:00",16.3288678078935,"Approved","OW479"
"2023-05-15 14:00",16.3298711364717,"Approved","OW479"
"2023-05-15 15:00",16.3318744650499,"Approved","OW479"
"2023-05-15 16:00",16.3328777936282,"Approved","OW479"
"2023-05-15 17:00",16.3338811222064,"Approved","OW479"
"2023-05-15 18:00",16.3348844507846,"Approved","OW479"
"2023-05-15 19:00",16.3348877793628,"Approved","OW479"
"2023-05-15 20:00",16.332891107941,"Approved","OW479"
"2023-05-15 21:00",16.3308944365193,"Approved","OW479"
"2023-05-15 22:00",16.3278977650975,"Approved","OW479"
"2023-05-15 23:00",16.3259010936757,"Approved","OW479"
"2023-05-16 00:00",16.3229044222539,"Approved","OW479"
"2023-05-16 01:00",16.3219077508321,"Approved","OW479"
"2023-05-16 02:00",16.3209110794104,"Approved","OW479"
"2023-05-16 03:00",16.3219144079886,"Approved","OW479"
"2023-05-16 04:00",16.3239177365668,"Approved","OW479"
"2023-05-16 05:00",16.325921065145,"Approved","OW479"
"2023-05-16 06:00",16.3279243937233,"Approved","OW479"
"2023-05-16 07:00",16.3309277223015,"Approved","OW479"
"2023-05-16 08:00",16.3329310508797,"Approved","OW479"
"2023-05-16 09:00",16.3329343794579,"Approved","OW479"
"2023-05-16 10:00",16.3329377080361,"Approved","OW479"
"2023-05-16 11:00",16.3319410366144,"Approved","OW479"
"2023-05-16 12:00",16.3299443651926,"Approved","OW479"
"2023-05-16 13:00",16.3299476937708,"Approved","OW479"
"2023-05-16 14:00",16.331951022349,"Approved","OW479"
"2023-05-16 15:00",16.3349543509272,"Approved","OW479"
"2023-05-16 16:00",16.3369576795055,"Approved","OW479"
"2023-05-16 17:00",16.3399610080837,"Approved","OW479"
"2023-05-16 18:00",16.3419643366619,"Approved","OW479"
"2023-05-16 19:00",16.3429676652401,"Approved","OW479"
"2023-05-16 20:00",16.3419709938184,"Approved","OW479"
"2023-05-16 21:00",16.3399743223966,"Approved","OW479"
"2023-05-16 22:00",16.3369776509748,"Approved","OW479"
"2023-05-16 23:00",16.333980979553,"Approved","OW479"
"2023-05-17 00:00",16.3309843081312,"Approved","OW479"
"2023-05-17 01:00",16.3289876367095,"Approved","OW479"
"2023-05-17 02:00",16.3269909652877,"Approved","OW479"
"2023-05-17 03:00",16.3279942938659,"Approved","OW479"
"2023-05-17 04:00",16.3289976224441,"Approved","OW479"
"2023-05-17 05:00",16.3300009510223,"Approved","OW479"
"2023-05-17 06:00",16.3320042796006,"Approved","OW479"
"2023-05-17 07:00",16.3320076081788,"Approved","OW479"
"2023-05-17 08:00",16.332010936757,"Approved","OW479"
"2023-05-17 09:00",16.3310142653352,"Approved","OW479"
"2023-05-17 10:00",16.3290175939135,"Approved","OW479"
"2023-05-17 11:00",16.3270209224917,"Approved","OW479"
"2023-05-17 12:00",16.3260242510699,"Approved","OW479"
"2023-05-17 13:00",16.3250275796481,"Approved","OW479"
"2023-05-17 14:00",16.3250309082263,"Approved","OW479"
"2023-05-17 15:00",16.3260342368046,"Approved","OW479"
"2023-05-17 16:00",16.3280375653828,"Approved","OW479"
"2023-05-17 17:00",16.328040893961,"Approved","OW479"
"2023-05-17 18:00",16.3290442225392,"Approved","OW479"
"2023-05-17 19:00",16.3300475511175,"Approved","OW479"
"2023-05-17 20:00",16.3300508796957,"Approved","OW479"
"2023-05-17 21:00",16.3280542082739,"Approved","OW479"
"2023-05-17 22:00",16.3260575368521,"Approved","OW479"
"2023-05-17 23:00",16.3220608654303,"Approved","OW479"
"2023-05-18 00:00",16.3190641940086,"Approved","OW479"
"2023-05-18 01:00",16.3150675225868,"Approved","OW479"
"2023-05-18 02:00",16.313070851165,"Approved","OW479"
"2023-05-18 03:00",16.3120741797432,"Approved","OW479"
"2023-05-18 04:00",16.3130775083214,"Approved","OW479"
"2023-05-18 05:00",16.3150808368997,"Approved","OW479"
"2023-05-18 06:00",16.3160841654779,"Approved","OW479"
"2023-05-18 07:00",16.3180874940561,"Approved","OW479"
"2023-05-18 08:00",16.3190908226343,"Approved","OW479"
"2023-05-18 09:00",16.3190941512126,"Approved","OW479"
"2023-05-18 10:00",16.3180974797908,"Approved","OW479"
"2023-05-18 11:00",16.317100808369,"Approved","OW479"
"2023-05-18 12:00",16.3171041369472,"Approved","OW479"
"2023-05-18 13:00",16.3171074655254,"Approved","OW479"
"2023-05-18 14:00",16.3171107941037,"Approved","OW479"
"2023-05-18 15:00",16.3201141226819,"Approved","OW479"
"2023-05-18 16:00",16.3231174512601,"Approved","OW479"
"2023-05-18 17:00",16.3261207798383,"Approved","OW479"
"2023-05-18 18:00",16.3291241084165,"Approved","OW479"
"2023-05-18 19:00",16.3321274369948,"Approved","OW479"
"2023-05-18 20:00",16.334130765573,"Approved","OW479"
"2023-05-18 21:00",16.3351340941512,"Approved","OW479"
"2023-05-18 22:00",16.3341374227294,"Approved","OW479"
"2023-05-18 23:00",16.3321407513077,"Approved","OW479"
"2023-05-19 00:00",16.3311440798859,"Approved","OW479"
"2023-05-19 01:00",16.3291474084641,"Approved","OW479"
"2023-05-19 02:00",16.3271507370423,"Approved","OW479"
"2023-05-19 03:00",16.3281540656205,"Approved","OW479"
"2023-05-19 04:00",16.3291573941988,"Approved","OW479"
"2023-05-19 05:00",16.332160722777,"Approved","OW479"
"2023-05-19 06:00",16.3351640513552,"Approved","OW479"
"2023-05-19 07:00",16.3391673799334,"Approved","OW479"
"2023-05-19 08:00",16.3401707085116,"Approved","OW479"
"2023-05-19 09:00",16.3421740370899,"Approved","OW479"
"2023-05-19 10:00",16.3431773656681,"Approved","OW479"
"2023-05-19 11:00",16.3461806942463,"Approved","OW479"
"2023-05-19 12:00",16.3461840228245,"Approved","OW479"
"2023-05-19 13:00",16.3481873514028,"Approved","OW479"
"2023-05-19 14:00",16.351190679981,"Approved","OW479"
"2023-05-19 15:00",16.3531940085592,"Approved","OW479"
"2023-05-19 16:00",16.3561973371374,"Approved","OW479"
"2023-05-19 17:00",16.3602006657156,"Approved","OW479"
"2023-05-19 18:00",16.3632039942939,"Approved","OW479"
"2023-05-19 19:00",16.3672073228721,"Approved","OW479"
"2023-05-19 20:00",16.3692106514503,"Approved","OW479"
"2023-05-19 21:00",16.3712139800285,"Approved","OW479"
"2023-05-19 22:00",16.3712173086068,"Approved","OW479"
"2023-05-19 23:00",16.369220637185,"Approved","OW479"
"2023-05-20 00:00",16.3682239657632,"Approved","OW479"
"2023-05-20 01:00",16.3662272943414,"Approved","OW479"
"2023-05-20 02:00",16.3642306229196,"Approved","OW479"
"2023-05-20 03:00",16.3622339514979,"Approved","OW479"
"2023-05-20 04:00",16.3642372800761,"Approved","OW479"
"2023-05-20 05:00",16.3662406086543,"Approved","OW479"
"2023-05-20 06:00",16.3672439372325,"Approved","OW479"
"2023-05-20 07:00",16.3692472658107,"Approved","OW479"
"2023-05-20 08:00",16.372250594389,"Approved","OW479"
"2023-05-20 09:00",16.3742539229672,"Approved","OW479"
"2023-05-20 10:00",16.3742572515454,"Approved","OW479"
"2023-05-20 11:00",16.3752605801236,"Approved","OW479"
"2023-05-20 12:00",16.3772639087019,"Approved","OW479"
"2023-05-20 13:00",16.3772672372801,"Approved","OW479"
"2023-05-20 14:00",16.3792705658583,"Approved","OW479"
"2023-05-20 15:00",16.3812738944365,"Approved","OW479"
"2023-05-20 16:00",16.3842772230147,"Approved","OW479"
"2023-05-20 17:00",16.386280551593,"Approved","OW479"
"2023-05-20 18:00",16.3892838801712,"Approved","OW479"
"2023-05-20 19:00",16.3932872087494,"Approved","OW479"
"2023-05-20 20:00",16.3982905373276,"Approved","OW479"
"2023-05-20 21:00",16.4022938659059,"Approved","OW479"
"2023-05-20 22:00",16.4052971944841,"Approved","OW479"
"2023-05-20 23:00",16.4073005230623,"Approved","OW479"
"2023-05-21 00:00",16.4073038516405,"Approved","OW479"
"2023-05-21 01:00",16.4073071802187,"Approved","OW479"
"2023-05-21 02:00",16.407310508797,"Approved","OW479"
"2023-05-21 03:00",16.4093138373752,"Approved","OW479"
"2023-05-21 04:00",16.4103171659534,"Approved","OW479"
"2023-05-21 05:00",16.4123204945316,"Approved","OW479"
"2023-05-21 06:00",16.4163238231098,"Approved","OW479"
"2023-05-21 07:00",16.4193271516881,"Approved","OW479"
"2023-05-21 08:00",16.4213304802663,"Approved","OW479"
"2023-05-21 09:00",16.4243338088445,"Approved","OW479"
"2023-05-21 10:00",16.4253371374227,"Approved","OW479"
"2023-05-21 11:00",16.4273404660009,"Approved","OW479"
"2023-05-21 12:00",16.4293437945792,"Approved","OW479"
"2023-05-21 13:00",16.4303471231574,"Approved","OW479"
"2023-05-21 14:00",16.4313504517356,"Approved","OW479"
"2023-05-21 15:00",16.4333537803138,"Approved","OW479"
"2023-05-21 16:00",16.4363571088921,"Approved","OW479"
"2023-05-21 17:00",16.4393604374703,"Approved","OW479"
"2023-05-21 18:00",16.4423637660485,"Approved","OW479"
"2023-05-21 19:00",16.4473670946267,"Approved","OW479"
"2023-05-21 20:00",16.4513704232049,"Approved","OW479"
"2023-05-21 21:00",16.4533737517832,"Approved","OW479"
"2023-05-21 22:00",16.4553770803614,"Approved","OW479"
"2023-05-21 23:00",16.4563804089396,"Approved","OW479"
"2023-05-22 00:00",16.4553837375178,"Approved","OW479"
"2023-05-22 01:00",16.4543870660961,"Approved","OW479"
"2023-05-22 02:00",16.4523903946743,"Approved","OW479"
"2023-05-22 03:00",16.4503937232525,"Approved","OW479"
"2023-05-22 04:00",16.4493970518307,"Approved","OW479"
"2023-05-22 05:00",16.4484003804089,"Approved","OW479"
"2023-05-22 06:00",16.4484037089872,"Approved","OW479"
"2023-05-22 07:00",16.4484070375654,"Approved","OW479"
"2023-05-22 08:00",16.4494103661436,"Approved","OW479"
"2023-05-22 09:00",16.4484136947218,"Approved","OW479"
"2023-05-22 10:00",16.4484170233,"Approved","OW479"
"2023-05-22 11:00",16.4474203518783,"Approved","OW479"
"2023-05-22 12:00",16.4454236804565,"Approved","OW479"
"2023-05-22 13:00",16.4444270090347,"Approved","OW479"
"2023-05-22 14:00",16.4434303376129,"Approved","OW479"
"2023-05-22 15:00",16.4424336661912,"Approved","OW479"
"2023-05-22 16:00",16.4434369947694,"Approved","OW479"
"2023-05-22 17:00",16.4444403233476,"Approved","OW479"
"2023-05-22 18:00",16.4464436519258,"Approved","OW479"
"2023-05-22 19:00",16.448446980504,"Approved","OW479"
"2023-05-22 20:00",16.4504503090823,"Approved","OW479"
"2023-05-22 21:00",16.4534536376605,"Approved","OW479"
"2023-05-22 22:00",16.4544569662387,"Approved","OW479"
"2023-05-22 23:00",16.4564602948169,"Approved","OW479"
"2023-05-23 00:00",16.4554636233952,"Approved","OW479"
"2023-05-23 01:00",16.4544669519734,"Approved","OW479"
"2023-05-23 02:00",16.4514702805516,"Approved","OW479"
"2023-05-23 03:00",16.4494736091298,"Approved","OW479"
"2023-05-23 04:00",16.446476937708,"Approved","OW479"
"2023-05-23 05:00",16.4454802662863,"Approved","OW479"
"2023-05-23 06:00",16.4434835948645,"Approved","OW479"
"2023-05-23 07:00",16.4424869234427,"Approved","OW479"
"2023-05-23 08:00",16.4424902520209,"Approved","OW479"
"2023-05-23 09:00",16.4424935805991,"Approved","OW479"
"2023-05-23 10:00",16.4414969091774,"Approved","OW479"
"2023-05-23 11:00",16.4405002377556,"Approved","OW479"
"2023-05-23 12:00",16.4405035663338,"Approved","OW479"
"2023-05-23 13:00",16.438506894912,"Approved","OW479"
"2023-05-23 14:00",16.4375102234903,"Approved","OW479"
"2023-05-23 15:00",16.4375135520685,"Approved","OW479"
"2023-05-23 16:00",16.4375168806467,"Approved","OW479"
"2023-05-23 17:00",16.4365202092249,"Approved","OW479"
"2023-05-23 18:00",16.4365235378031,"Approved","OW479"
"2023-05-23 19:00",16.4395268663814,"Approved","OW479"